This demonstration page uses our WeatherBlox Daily Observations layout. Learn more.

Left ArrowRight Arrow

Hourly Observations for September 18, 2020

Temp ( °F °C ) Dew Point ( °F °C ) Humidity (%) Winds ( mph kmh ) Pressure ( in mb ) Visibility ( mi km ) Precip ( " mm )
12:15 am 00:15 Clear 55 13 52 11.2 89 89 SE 6 9 30.19 1022 7 11 N/A
12:35 am 00:35 Clear 55 12.8 52 11.1 90 90 SE 6 9 30.19 1022 7 11 N/A
12:55 am 00:55 Clear 55 12.7 52 11.2 91 91 SSE 6 9 30.19 1022 7 11 N/A
1:15 am 01:15 Clear 56 13.3 53 11.5 89 89 SSE 5 7 30.19 1022 7 11 N/A
1:35 am 01:35 Clear 56 13.5 53 11.6 88 88 SSE 5 7 30.20 1023 7 11 N/A
1:55 am 01:55 Clear 56 13.2 53 11.5 90 90 SSE 6 9 30.20 1023 10 16 N/A
2:15 am 02:15 Clear 55 12.7 52 11 89 89 SE 3 6 30.19 1022 7 11 N/A
2:35 am 02:35 Clear 54 12 51 10.6 91 91 SE 5 7 30.21 1023 7 11 N/A
2:55 am 02:55 Clear 54 12 51 10.6 91 91 SE 3 6 30.21 1023 7 11 N/A
3:15 am 03:15 Clear 53 11.4 51 10.3 93 93 E 3 6 30.21 1023 7 11 N/A
3:35 am 03:35 Clear 52 11.2 50 10 92 92 ESE 5 7 30.22 1023 7 11 N/A
3:55 am 03:55 Clear 52 11.1 50 10.1 94 94 ESE 5 7 30.22 1023 7 11 N/A
4:15 am 04:15 Clear 53 11.5 51 10.4 93 93 ESE 6 9 30.23 1024 10 16 N/A
4:35 am 04:35 Partly Cloudy 53 11.5 51 10.3 92 92 SE 5 7 30.23 1024 10 16 N/A
4:55 am 04:55 Mostly Cloudy 53 11.6 51 10.5 93 93 ESE 5 7 30.24 1024 10 16 N/A
5:15 am 05:15 Cloudy 53 11.8 51 10.6 92 92 ESE 6 9 30.25 1024 10 16 N/A
5:35 am 05:35 Cloudy 54 12 51 10.6 91 91 ESE 5 7 30.25 1024 10 16 N/A
5:55 am 05:55 Cloudy 53 11.7 51 10.5 92 92 ESE 8 13 30.24 1024 10 16 N/A
6:15 am 06:15 Cloudy 54 12 51 10.6 91 91 SE 7 11 30.25 1024 10 16 N/A
6:35 am 06:35 Mostly Cloudy 53 11.8 51 10.3 91 91 SE 6 9 30.24 1024 10 16 N/A
6:55 am 06:55 Partly Cloudy 53 11.5 50 10 91 91 SSE 5 7 30.23 1024 10 16 N/A
7:15 am 07:15 Clear 53 11.5 50 10 91 91 SE 7 11 30.24 1024 10 16 N/A
7:35 am 07:35 Sunny 52 11.2 50 10.1 93 93 SE 7 11 30.25 1024 10 16 N/A
7:55 am 07:55 Sunny 53 11.7 50 10.2 91 91 SE 8 13 30.27 1025 10 16 N/A
8:15 am 08:15 Sunny 54 12.1 51 10.5 90 90 SE 8 13 30.27 1025 10 16 N/A
8:35 am 08:35 Sunny 55 12.7 52 11 89 89 SE 9 15 30.27 1025 10 16 N/A
8:55 am 08:55 Sunny 56 13.5 52 11.3 87 87 SE 10 17 30.26 1025 10 16 N/A
9:15 am 09:15 Sunny 58 14.2 53 11.4 83 83 SE 10 17 30.26 1025 10 16 N/A
9:35 am 09:35 Sunny 59 15.1 53 11.6 80 80 SE 10 17 30.26 1025 10 16 N/A
9:55 am 09:55 Sunny 61 16.2 53 11.6 74 74 SSE 14 22 30.25 1024 10 16 N/A
10:15 am 10:15 Sunny 63 17.4 53 11.6 69 69 SE 13 20 30.25 1024 10 16 N/A
10:35 am 10:35 Sunny 65 18.4 52 11.2 63 63 SSE 14 22 30.24 1024 10 16 N/A
10:55 am 10:55 Sunny 66 18.9 52 11 60 60 SSE 18 30 30.23 1024 10 16 N/A
11:15 am 11:15 Mostly Cloudy 67 19.3 52 11.1 59 59 SSE 12 19 30.23 1024 10 16 N/A
11:35 am 11:35 Mostly Cloudy 68 19.8 52 11.1 57 57 SE 17 28 30.23 1024 10 16 N/A
11:55 am 11:55 Mostly Cloudy 69 20.6 52 10.9 54 54 SSE 15 24 30.19 1022 10 16 N/A
12:15 pm 12:15 Cloudy 70 21.3 52 10.9 52 52 SSE 14 22 30.19 1022 10 16 N/A
12:35 pm 12:35 Cloudy 71 21.5 52 10.9 51 51 SSE 17 28 30.19 1022 10 16 N/A
12:55 pm 12:55 Cloudy 71 21.8 51 10.8 50 50 SSE 14 22 30.18 1022 10 16 N/A
1:15 pm 13:15 Cloudy 72 22.1 52 10.9 49 49 SE 16 26 30.17 1022 10 16 N/A
1:35 pm 13:35 Cloudy 72 22.2 52 11 49 49 SE 16 26 30.17 1022 10 16 N/A
1:55 pm 13:55 Mostly Cloudy 73 22.6 52 10.9 48 48 SE 15 24 30.16 1021 10 16 N/A
2:15 pm 14:15 Mostly Cloudy 74 23.4 52 11.3 47 47 SE 17 28 30.15 1021 10 16 N/A
2:35 pm 14:35 Mostly Cloudy 74 23.5 53 11.5 47 47 SE 14 22 30.14 1021 10 16 N/A
2:55 pm 14:55 Partly Cloudy 74 23.5 53 11.6 47 47 SE 17 28 30.12 1020 10 16 N/A
3:15 pm 15:15 Sunny 74 23.5 53 11.9 48 48 SE 16 26 30.11 1020 10 16 N/A
3:35 pm 15:35 Sunny 74 23.6 53 11.7 47 47 SE 15 24 30.11 1020 10 16 N/A
3:55 pm 15:55 Sunny 75 23.7 53 11.8 47 47 SE 18 30 30.10 1019 10 16 N/A
4:15 pm 16:15 Sunny 75 23.7 54 12 48 48 SSE 16 26 30.10 1019 10 16 N/A
4:35 pm 16:35 Sunny 75 23.7 54 12 48 48 SSE 12 19 30.09 1019 10 16 N/A
4:55 pm 16:55 Sunny 74 23.5 53 11.9 48 48 S 14 22 30.08 1019 10 16 N/A
5:15 pm 17:15 Sunny 74 23.2 53 11.7 48 48 SE 17 28 30.08 1019 10 16 N/A
5:35 pm 17:35 Sunny 73 23 53 11.6 49 49 SSE 16 26 30.07 1018 10 16 N/A
5:55 pm 17:55 Sunny 73 22.7 53 11.4 49 49 SSE 13 20 30.06 1018 10 16 N/A
6:15 pm 18:15 Sunny 72 22.3 53 11.5 51 51 SSE 12 19 30.07 1018 10 16 N/A
6:35 pm 18:35 Sunny 71 21.8 52 11.2 51 51 SE 13 20 30.07 1018 10 16 N/A
6:55 pm 18:55 Sunny 70 21.1 52 11.2 53 53 SE 10 17 30.08 1019 10 16 N/A
7:15 pm 19:15 Sunny 68 20.1 52 11.1 56 56 SE 10 17 30.10 1019 10 16 N/A
7:35 pm 19:35 Sunny 67 19.2 52 11 59 59 SE 9 15 30.09 1019 10 16 N/A
7:55 pm 19:55 Clear 65 18.2 52 10.9 63 63 SE 8 13 30.10 1019 10 16 N/A
8:15 pm 20:15 Clear 64 17.6 51 10.8 65 65 SE 9 15 30.12 1020 10 16 N/A
8:35 pm 20:35 Clear 63 17.4 51 10.8 65 65 SE 12 19 30.12 1020 10 16 N/A
8:55 pm 20:55 Clear 63 17.1 51 10.7 66 66 SE 10 17 30.12 1020 10 16 N/A
9:15 pm 21:15 Clear 63 17.1 51 10.6 66 66 SE 13 20 30.12 1020 10 16 N/A
9:35 pm 21:35 Clear 62 16.8 51 10.5 67 67 SE 12 19 30.12 1020 10 16 N/A
9:55 pm 21:55 Clear 62 16.5 51 10.4 67 67 SE 13 20 30.14 1021 10 16 N/A
10:15 pm 22:15 Clear 61 16.3 51 10.4 68 68 SE 12 19 30.13 1020 10 16 N/A
10:35 pm 22:35 Clear 60 15.8 51 10.3 70 70 SE 13 20 30.13 1020 10 16 N/A
10:55 pm 22:55 Clear 60 15.5 51 10.3 71 71 SE 10 17 30.14 1021 10 16 N/A
11:15 pm 23:15 Clear 59 15.2 51 10.3 73 73 SE 9 15 30.15 1021 10 16 N/A
11:35 pm 23:35 Clear 59 14.9 51 10.3 74 74 SE 9 15 30.15 1021 10 16 N/A
11:55 pm 23:55 Clear 58 14.7 51 10.3 75 75 SSE 10 17 30.15 1021 10 16 N/A

Powered by AerisWeather